Regional Weather Roundup
Issued by NWS

Home | Current Version | Previous Version | Text Only | Print | Product List | Glossary On
Versions: 1 2 3 4 5 6 7 8 9 10 11 12 13 14 15 16 17 18 19 20 21 22 23 24 25 26 27 28 29 30 31 32 33 34 35 36 37 38 39 40 41 42 43 44 45 46 47 48 49 50
000
ASUS45 KBOU 210410
RWRCO

WEATHER ROUNDUP FOR COLORADO
NATIONAL WEATHER SERVICE DENVER/BOULDER CO
900 PM MST SAT JAN 20 2018

NOTE: "FAIR" INDICATES FEW OR NO CLOUDS BELOW 12000 FEET WITH NO
SIGNIFICANT WEATHER AND/OR OBSTRUCTIONS TO VISIBILITY.

COZ001>005-013-030-031-210500-
...NORTHWEST COLORADO...

CITY           SKY/WX    TMP DP  RH WIND       PRES   REMARKS
CRAIG          FLURRIES  28  25  88 W10       29.75R WCI  19
HAYDEN         LGT SNOW N/A N/A N/A W20       29.73R
MEEKER         CLOUDY    30  25  81 W6        29.73R WCI  24
RABBIT EARS PA CLOUDY    27  25  93 S10G25    29.69F WCI  17
STEAMBOAT SPGS CLOUDY    31  30  95 SW18G24   29.67R WCI  20
WALDEN         CLOUDY    34  28  80 SW12      29.68F WCI  25
$$

COZ006>008-011-210500-
...WEST CENTRAL VALLEYS...

CITY           SKY/WX    TMP DP  RH WIND       PRES   REMARKS
GRAND JUNCTION CLOUDY    37  36  96 N8        29.72F
MONTROSE       CLOUDY    38  27  64 W10       29.76R
EAGLE          MOCLDY    37  32  82 E5        29.68F
RIFLE          LGT RAIN  36  34  92 W13       29.70S
DELTA          CLOUDY    41  37  84 S8        29.74S
NUCLA          CLOUDY    36  30  80 SE8       29.78F
$$

COZ017>023-064>068-210500-
...SOUTHWEST COLORADO...

CITY           SKY/WX    TMP DP  RH WIND       PRES   REMARKS
DURANGO        LGT SNOW  31  31 100 W15       29.79S VSB 3/4 WCI  20
CORTEZ         CLOUDY    33  31  92 CALM      29.78F
PAGOSA SPRINGS LGT SNOW  33  33 100 CALM      29.76F
TELLURIDE      LGT SNOW  28  25  89 W12G18    29.77F WCI  17
WOLF CREEK PAS NOT AVBL
$$

COZ009-010-012-014-032>034-037-058>063-210500-
...CENTRAL COLORADO...

CITY           SKY/WX    TMP DP  RH WIND       PRES   REMARKS
ASPEN          LGT SNOW  33  32  96 CALM      29.66F FOG
BUENA VISTA    CLOUDY    38  17  42 SE9       29.69F
COPPER MTN     NOT AVBL
BERTHOUD PASS  MOCLDY    19   9  63 S25G33    29.77F WCI   2
COTTONWOOD PAS   N/A     37  23  56 SE12      29.71F
GUNNISON       MIX PCPN  30  24  78 SE3       29.70F
KREMMLING      MOCLDY    39  34  81 SW6       29.69S
LEADVILLE      CLOUDY    27  21  78 CALM      29.70F
MONARCH PASS   MOCLDY    21  19  93 SW20      29.87F WCI   6
SALIDA         FAIR      39  19  44 W6        29.77F
SUNLIGHT       HVY SNOW  23  21  93 W7G16     29.74F VSB 1/4 WCI  15
WILKERSON PASS CLOUDY    28  14  54 SW12G22   29.80F WCI  18
$$

COZ069>075-210500-
...SAN LUIS VALLEY/SANGRE DE CRISTO MOUNTAINS...

CITY           SKY/WX    TMP DP  RH WIND       PRES   REMARKS
ALAMOSA        FAIR      35  20  54 SW12      29.73F WCI  27
DEL NORTE      MOCLDY    32  26  78 W7        29.74F WCI  25
LA VETA PASS   FAIR      32  18  55 S25G39      N/A  WCI  19
SAGUACHE       CLOUDY    30  18  59 E5        29.74F WCI  25
$$

COZ035-036-038>040-210500-
...NORTHERN COLORADO FRONT RANGE...

CITY           SKY/WX    TMP DP  RH WIND       PRES   REMARKS
DENVER INTL AP CLOUDY    29  25  85 NE9       29.81S WCI  20
DMNS CITY PARK NOT AVBL
AURORA         CLOUDY    28  28  99 NE6       29.81S WCI  22
FRONT RANGE AP CLOUDY    30  28  93 NE6       29.81S WCI  24
ERIE MUNI ARPT CLOUDY    32  29  88 NE5       29.88R WCI  27
BOULDER MUN AP CLOUDY    32  30  93 NE3       29.82S
CENTENNIAL     CLOUDY    29  27  92 NE7       29.80S WCI  22
BROOMFIELD     CLOUDY    30  28  93 N6        29.81S WCI  24
FORT COLLINS   MIX PCPN  31  29  92 NE7       29.83S WCI  24
LONGMONT       NOT AVBL
$$

COZ041-046-047-076>085-087-088-210500-
...PIKES PEAK/PALMER DIVIDE AND SOUTHERN FOOTHILLS...

CITY           SKY/WX    TMP DP  RH WIND       PRES   REMARKS
COLO. SPRINGS  MOCLDY    36  25  64 N12       29.74R
A. F. ACADEMY  FAIR      30  24  77 N13       29.75R WCI  20
SCHRIEVER AFB  MOCLDY    30  26  84 NE16G25   29.74R WCI  18
CHEYENNE MTN   MOCLDY    34  24  68 N13       29.67F WCI  25
ELLICOTT         N/A    N/A N/A N/A N16G22    29.72R
FALCON         MOCLDY    28  26  92 N14G21    29.76R WCI  17
FORT CARSON    MOCLDY    38  25  59 N15       29.71S
LIMON          CLOUDY    28  27  96 N16       29.77S WCI  16
MONUMENT HILL  FOG       25  25 100 N3        29.79R VSB 1/4
CANON CITY     CLOUDY    48  23  37 NE9       29.67S
WALSENBURG     FAIR      41  19  42 W7        29.68F
TRINIDAD       FAIR      46  17  31 VRB3      29.68F
$$

COZ042>045-048>051-090-091-210500-
...NORTHEAST COLORADO...

CITY           SKY/WX    TMP DP  RH WIND       PRES   REMARKS
GREELEY ARPT   CLOUDY    31  28  89 NE12      29.83F WCI  22
AKRON          CLOUDY    29  27  92 NE14      29.81F WCI  18
BURLINGTON     FAIR      29  25  85 N9        29.77S WCI  20
WRAY           CLOUDY    32  30  93 N15       29.83S WCI  22
YUMA           CLOUDY    30  27  86 N14       29.82F WCI  20
STERLING       CLOUDY    32  28  86 NE8       29.83F WCI  25
HOLYOKE        CLOUDY    34  30  86 N10       29.85S WCI  26
FORT MORGAN    CLOUDY    31  26  84 NE14      29.83F WCI  20
$$

COZ086-089-092>099-210500-
...SOUTHEAST COLORADO...

CITY           SKY/WX    TMP DP  RH WIND       PRES   REMARKS
PUEBLO         FAIR      42  27  55 NE8       29.72R
LA JUNTA       FAIR      38  24  57 NE9       29.71R
LAMAR          FAIR      35  23  61 NE8       29.69R WCI  29
SPRINGFIELD      N/A     53  16  23 S16       29.65F
$$



USA.gov is the U.S. government's official web portal to all federal, state and local government web resources and services.